Location: Newark
(40.3500°N, 15.2333°E)
Time: 05:13:09
(UTC+00:00)

Courier 1B - Visible Passes

Search period start: 19 January 2020 00:00
Search period end: 29 January 2020 00:00
Orbit: 962 x 1209 km, 28.3° (Epoch: 18 January)

Date Brightness Start Highest point End Pass type
(mag) Time Alt. Az. Time Alt. Az. Time Alt. Az.
19 Jan 9.7 03:12:21 17° S 03:14:25 19° SSE 03:19:31 10° ESE visible
19 Jan 9.3 05:01:07 10° SW 05:07:46 31° S 05:14:28 10° ESE visible
20 Jan 10.0 02:22:15 14° SE 02:22:15 14° SE 02:24:45 10° ESE visible
20 Jan 9.3 04:09:10 15° SW 04:14:01 29° SSE 04:20:29 10° ESE visible
21 Jan 9.3 03:18:59 24° S 03:20:19 25° SSE 03:26:24 10° ESE visible
21 Jan 9.2 05:07:00 10° WSW 05:13:47 34° S 05:20:39 10° ESE visible
22 Jan 9.8 02:28:43 19° SE 02:28:43 19° SE 02:32:08 10° ESE visible
22 Jan 9.1 04:15:38 19° SW 04:20:01 32° S 04:26:47 10° ESE visible
23 Jan 9.0 03:25:19 29° S 03:26:16 30° S 03:32:50 10° ESE visible
23 Jan 9.1 05:13:08 10° WSW 05:19:48 33° S 05:26:36 10° SE visible
24 Jan 9.5 02:34:58 23° SE 02:34:58 23° SE 02:38:47 10° ESE visible
24 Jan 9.0 04:21:52 20° SW 04:26:02 33° S 04:32:51 10° ESE visible
25 Jan 10.4 01:44:35 10° ESE 01:44:35 10° ESE 01:44:37 10° ESE visible
25 Jan 8.8 03:31:29 32° S 03:32:18 33° S 03:39:01 10° ESE visible
25 Jan 9.3 05:19:29 10° WSW 05:25:48 28° SSW 05:32:16 10° SE visible
26 Jan 9.4 02:41:06 25° SE 02:41:06 25° SE 02:45:06 10° ESE visible
26 Jan 9.0 04:28:00 19° SW 04:32:04 31° S 04:38:41 10° SE visible
27 Jan 10.3 01:50:42 11° ESE 01:50:42 11° ESE 01:51:06 10° ESE visible
27 Jan 8.8 03:37:35 31° SSW 03:38:20 32° S 03:44:59 10° SE visible
27 Jan 9.5 05:26:10 10° WSW 05:31:46 22° SSW 05:37:29 10° SSE visible
28 Jan 9.3 02:47:11 26° SE 02:47:11 26° SE 02:51:10 10° ESE visible
28 Jan 9.2 04:34:05 17° SW 04:38:04 25° SSW 04:44:09 10° SE visible
